Location: Peebles
(55.6412°N, 3.1714°W)
Time: 02:49:45
(UTC+01:00)

FLOCK 3P 30 - Visible Passes

Search period start: 01 July 2022 00:00
Search period end: 11 July 2022 00:00
Orbit: 436 x 446 km, 97.3° (Epoch: 30 June)

Date Brightness Start Highest point End Pass type
(mag) Time Alt. Az. Time Alt. Az. Time Alt. Az.
02 Jul ? 00:00:33 10° WSW 00:02:03 12° W 00:03:33 10° WNW visible
02 Jul ? 23:21:03 10° SSW 23:24:00 28° W 23:26:59 10° NNW visible
04 Jul ? 23:38:39 10° SW 23:41:10 19° W 23:43:41 10° NW visible
05 Jul ? 22:59:53 10° S 23:03:08 47° W 23:06:24 10° NNW visible
06 Jul ? 23:56:29 10° WSW 23:58:15 13° W 00:00:00 10° WNW visible
07 Jul ? 23:17:03 10° SSW 23:20:04 31° W 23:23:06 10° NNW visible
09 Jul ? 23:34:16 10° SW 23:36:55 21° W 23:39:34 10° NW visible
10 Jul ? 22:55:28 10° S 22:58:45 53° W 23:02:03 10° NNW visible
